Time,TemperatureF,DewpointF,PressureIn,WindDirection,WindDirectionDegrees,WindSpeedMPH,WindSpeedGustMPH,Humidity,HourlyPrecipIn,Conditions,Clouds,dailyrainin,SoftwareType,DateUTC
2018-01-22 00:04:00,74.1,69.1,29.96,ENE,78,5.2,8.9,86,0.00,,,0.00,Arduino-ESP8266,2018-01-22 04:04:00,
2018-01-22 00:10:00,74.2,69.2,29.95,ENE,71,5.6,10.4,86,0.00,,,0.00,Arduino-ESP8266,2018-01-22 04:10:00,
2018-01-22 00:15:00,74.6,69.3,29.95,East,101,4.0,8.9,85,0.00,,,0.00,Arduino-ESP8266,2018-01-22 04:15:00,
2018-01-22 00:21:00,74.3,68.9,29.95,East,82,9.5,13.9,85,0.00,,,0.00,Arduino-ESP8266,2018-01-22 04:21:00,
2018-01-22 00:26:00,74.3,68.5,29.95,East,97,5.9,13.9,83,0.00,,,0.00,Arduino-ESP8266,2018-01-22 04:26:00,
2018-01-22 00:32:00,74.1,68.2,29.95,ENE,78,5.1,8.9,83,0.00,,,0.00,Arduino-ESP8266,2018-01-22 04:32:00,
2018-01-22 00:37:00,74.1,68.2,29.95,ESE,108,5.0,7.9,83,0.00,,,0.00,Arduino-ESP8266,2018-01-22 04:37:00,
2018-01-22 00:43:00,74.0,68.3,29.95,ENE,75,4.2,7.9,84,0.00,,,0.00,Arduino-ESP8266,2018-01-22 04:43:00,
2018-01-22 00:49:00,74.2,68.4,29.95,ENE,75,5.8,12.4,84,0.00,,,0.00,Arduino-ESP8266,2018-01-22 04:49:00,
2018-01-22 00:54:00,74.1,68.0,29.95,East,86,5.8,8.4,83,0.00,,,0.00,Arduino-ESP8266,2018-01-22 04:54:00,
2018-01-22 01:01:00,74.1,68.0,29.94,ENE,71,6.7,14.9,83,0.00,,,0.00,Arduino-ESP8266,2018-01-22 05:01:00,
2018-01-22 01:12:00,74.5,68.5,29.94,NE,52,4.9,8.4,83,0.00,,,0.00,Arduino-ESP8266,2018-01-22 05:12:00,
2018-01-22 01:18:00,74.3,68.6,29.94,ENE,60,5.0,10.9,84,0.00,,,0.00,Arduino-ESP8266,2018-01-22 05:18:00,
2018-01-22 01:23:00,74.6,69.1,29.94,ENE,78,5.1,11.4,84,0.00,,,0.00,Arduino-ESP8266,2018-01-22 05:23:00,
2018-01-22 01:29:00,74.2,68.5,29.93,NE,52,7.2,13.4,84,0.00,,,0.00,Arduino-ESP8266,2018-01-22 05:29:00,
2018-01-22 01:34:00,74.2,68.7,29.93,East,86,4.8,13.4,84,0.00,,,0.00,Arduino-ESP8266,2018-01-22 05:34:00,
2018-01-22 01:40:00,74.3,68.6,29.93,East,93,5.8,12.4,84,0.00,,,0.00,Arduino-ESP8266,2018-01-22 05:40:00,
2018-01-22 01:45:00,74.2,68.3,29.93,ENE,78,4.6,9.4,83,0.00,,,0.00,Arduino-ESP8266,2018-01-22 05:45:00,
2018-01-22 01:51:00,74.0,68.0,29.92,East,86,6.5,19.9,83,0.00,,,0.00,Arduino-ESP8266,2018-01-22 05:51:00,
2018-01-22 01:57:00,74.1,67.8,29.92,East,93,7.2,9.9,82,0.00,,,0.00,Arduino-ESP8266,2018-01-22 05:57:00,
2018-01-22 02:02:00,74.2,68.2,29.92,East,90,5.3,11.4,83,0.00,,,0.00,Arduino-ESP8266,2018-01-22 06:02:00,
2018-01-22 02:13:00,74.3,68.6,29.91,ENE,71,5.3,8.4,84,0.00,,,0.00,Arduino-ESP8266,2018-01-22 06:13:00,
2018-01-22 02:19:00,74.1,68.7,29.91,ENE,67,5.6,10.4,84,0.00,,,0.00,Arduino-ESP8266,2018-01-22 06:19:00,
2018-01-22 02:24:00,74.2,68.5,29.91,ENE,71,4.1,5.5,84,0.00,,,0.00,Arduino-ESP8266,2018-01-22 06:24:00,
2018-01-22 02:30:00,74.2,68.4,29.90,ESE,105,5.8,8.4,83,0.00,,,0.00,Arduino-ESP8266,2018-01-22 06:30:00,
2018-01-22 02:35:00,74.1,68.2,29.90,East,97,5.0,7.5,83,0.00,,,0.00,Arduino-ESP8266,2018-01-22 06:35:00,
2018-01-22 02:42:00,74.0,68.0,29.90,ENE,71,5.4,19.4,83,0.00,,,0.00,Arduino-ESP8266,2018-01-22 06:42:00,
2018-01-22 02:50:00,74.0,68.1,29.90,East,82,4.8,21.4,83,0.00,,,0.00,Arduino-ESP8266,2018-01-22 06:50:00,
2018-01-22 02:56:00,73.7,67.7,29.90,ENE,67,7.9,11.9,83,0.00,,,0.00,Arduino-ESP8266,2018-01-22 06:56:00,
2018-01-22 03:01:00,73.8,68.0,29.90,ENE,67,5.4,7.0,83,0.00,,,0.00,Arduino-ESP8266,2018-01-22 07:01:00,
2018-01-22 03:12:00,73.8,68.1,29.89,East,86,7.6,10.9,84,0.00,,,0.00,Arduino-ESP8266,2018-01-22 07:12:00,
2018-01-22 03:18:00,73.9,68.5,29.89,East,93,4.2,8.4,84,0.00,,,0.00,Arduino-ESP8266,2018-01-22 07:18:00,
2018-01-22 03:26:00,73.7,68.3,29.89,ENE,73,5.3,11.4,84,0.00,,,0.00,Arduino-ESP8266,2018-01-22 07:26:00,
2018-01-22 03:31:00,73.8,68.7,29.89,ENE,75,4.7,7.5,85,0.00,,,0.00,Arduino-ESP8266,2018-01-22 07:31:00,
2018-01-22 03:38:00,74.2,69.0,29.89,East,82,7.4,22.4,85,0.00,,,0.00,Arduino-ESP8266,2018-01-22 07:38:00,
2018-01-22 04:03:00,74.3,69.1,29.89,SE,142,3.4,7.5,85,0.00,,,0.00,Arduino-ESP8266,2018-01-22 08:03:00,
2018-01-22 04:09:00,74.3,69.0,29.89,East,86,7.2,18.9,85,0.00,,,0.00,Arduino-ESP8266,2018-01-22 08:09:00,
2018-01-22 04:14:00,74.3,69.0,29.89,ENE,75,5.2,11.4,85,0.00,,,0.00,Arduino-ESP8266,2018-01-22 08:14:00,
2018-01-22 04:20:00,74.1,68.8,29.89,ENE,78,5.1,9.4,85,0.00,,,0.00,Arduino-ESP8266,2018-01-22 08:20:00,
2018-01-22 04:26:00,74.1,68.8,29.89,East,86,6.5,20.4,85,0.00,,,0.00,Arduino-ESP8266,2018-01-22 08:26:00,
2018-01-22 04:57:00,73.8,68.6,29.90,ENE,60,5.2,17.4,85,0.00,,,0.00,Arduino-ESP8266,2018-01-22 08:57:00,
2018-01-22 05:03:00,73.9,68.4,29.90,NE,56,5.3,13.4,84,0.00,,,0.00,Arduino-ESP8266,2018-01-22 09:03:00,
2018-01-22 05:10:00,74.0,68.7,29.90,East,86,6.7,15.9,85,0.00,,,0.00,Arduino-ESP8266,2018-01-22 09:10:00,
2018-01-22 05:27:00,74.0,68.9,29.90,ENE,63,6.3,10.9,85,0.00,,,0.00,Arduino-ESP8266,2018-01-22 09:27:00,
2018-01-22 05:32:00,74.3,69.2,29.90,ENE,78,3.9,7.5,85,0.00,,,0.00,Arduino-ESP8266,2018-01-22 09:32:00,
2018-01-22 05:38:00,74.3,69.2,29.91,East,97,4.8,7.9,85,0.00,,,0.00,Arduino-ESP8266,2018-01-22 09:38:00,
2018-01-22 05:43:00,74.5,69.6,29.91,East,93,7.0,8.9,86,0.00,,,0.00,Arduino-ESP8266,2018-01-22 09:43:00,
2018-01-22 05:50:00,74.6,69.8,29.91,ESE,105,5.6,12.4,86,0.00,,,0.00,Arduino-ESP8266,2018-01-22 09:50:00,
2018-01-22 05:55:00,74.3,69.9,29.92,ENE,78,5.6,10.4,87,0.00,,,0.00,Arduino-ESP8266,2018-01-22 09:55:00,
2018-01-22 06:09:00,73.8,69.5,29.92,East,93,4.7,17.9,88,0.00,,,0.00,Arduino-ESP8266,2018-01-22 10:09:00,
2018-01-22 06:15:00,73.6,68.8,29.92,East,82,5.5,8.9,86,0.00,,,0.00,Arduino-ESP8266,2018-01-22 10:15:00,
2018-01-22 06:21:00,74.0,69.8,29.92,ENE,60,5.4,12.9,88,0.00,,,0.00,Arduino-ESP8266,2018-01-22 10:21:00,
2018-01-22 06:26:00,73.8,69.7,29.92,ENE,75,4.8,7.0,88,0.00,,,0.00,Arduino-ESP8266,2018-01-22 10:26:00,
2018-01-22 06:39:00,72.9,69.3,29.93,NE,48,3.4,8.4,90,0.00,,,0.00,Arduino-ESP8266,2018-01-22 10:39:00,
2018-01-22 07:19:00,73.4,69.2,29.94,ENE,71,10.5,27.3,88,0.00,,,0.00,Arduino-ESP8266,2018-01-22 11:19:00,
2018-01-22 07:28:00,73.7,69.5,29.95,NE,56,5.5,8.9,88,0.00,,,0.00,Arduino-ESP8266,2018-01-22 11:28:00,
2018-01-22 07:40:00,73.8,69.1,29.95,ENE,78,4.8,12.9,87,0.00,,,0.00,Arduino-ESP8266,2018-01-22 11:40:00,
2018-01-22 07:45:00,73.8,69.2,29.96,East,82,5.1,8.9,87,0.00,,,0.00,Arduino-ESP8266,2018-01-22 11:45:00,
2018-01-22 07:56:00,75.0,70.1,29.96,East,90,4.4,10.4,86,0.00,,,0.00,Arduino-ESP8266,2018-01-22 11:56:00,
2018-01-22 08:02:00,76.1,70.0,29.96,East,97,4.7,9.4,83,0.00,,,0.00,Arduino-ESP8266,2018-01-22 12:02:00,
2018-01-22 08:22:00,78.1,70.7,29.97,ENE,78,6.2,14.4,79,0.00,,,0.00,Arduino-ESP8266,2018-01-22 12:22:00,
2018-01-22 08:45:00,78.7,71.1,29.98,East,82,5.5,9.9,78,0.00,,,0.00,Arduino-ESP8266,2018-01-22 12:45:00,
2018-01-22 10:50:00,83.3,73.6,30.00,NE,53,5.3,9.4,72,0.00,,,0.00,Arduino-ESP8266,2018-01-22 14:50:00,
2018-01-22 10:56:00,83.6,73.8,30.00,NE,52,5.4,10.4,72,0.00,,,0.00,Arduino-ESP8266,2018-01-22 14:56:00,
2018-01-22 11:01:00,83.7,73.9,29.99,NE,48,5.0,12.4,72,0.00,,,0.00,Arduino-ESP8266,2018-01-22 15:01:00,
2018-01-22 11:07:00,83.5,73.8,29.99,ENE,60,3.9,7.5,73,0.00,,,0.00,Arduino-ESP8266,2018-01-22 15:07:00,
2018-01-22 11:12:00,83.5,73.8,29.99,ENE,60,3.5,7.9,73,0.00,,,0.00,Arduino-ESP8266,2018-01-22 15:12:00,
2018-01-22 11:18:00,84.0,74.3,29.98,ENE,67,5.2,11.4,73,0.00,,,0.00,Arduino-ESP8266,2018-01-22 15:18:00,
2018-01-22 11:23:00,84.0,73.9,29.98,NE,41,4.1,8.4,72,0.00,,,0.00,Arduino-ESP8266,2018-01-22 15:23:00,
2018-01-22 11:29:00,84.5,74.5,29.98,East,82,4.0,7.0,72,0.00,,,0.00,Arduino-ESP8266,2018-01-22 15:29:00,
2018-01-22 11:34:00,84.7,74.4,29.98,ESE,112,4.4,7.0,71,0.00,,,0.00,Arduino-ESP8266,2018-01-22 15:34:00,
2018-01-22 11:40:00,84.5,74.2,29.98,NE,52,4.3,9.9,71,0.00,,,0.00,Arduino-ESP8266,2018-01-22 15:40:00,
2018-01-22 11:45:00,84.3,73.5,29.97,NE,41,4.5,6.5,70,0.00,,,0.00,Arduino-ESP8266,2018-01-22 15:45:00,
2018-01-22 11:51:00,84.8,74.4,29.97,NE,52,4.0,6.5,70,0.00,,,0.00,Arduino-ESP8266,2018-01-22 15:51:00,
2018-01-22 11:56:00,84.8,73.8,29.97,NE,52,5.1,8.4,69,0.00,,,0.00,Arduino-ESP8266,2018-01-22 15:56:00,
2018-01-22 12:02:00,84.5,73.9,29.97,NE,45,3.6,10.4,70,0.00,,,0.00,Arduino-ESP8266,2018-01-22 16:02:00,
2018-01-22 12:07:00,84.1,73.2,29.97,NE,45,3.4,6.0,69,0.00,,,0.00,Arduino-ESP8266,2018-01-22 16:07:00,
2018-01-22 12:13:00,84.2,73.3,29.96,NE,37,3.3,9.4,69,0.00,,,0.00,Arduino-ESP8266,2018-01-22 16:13:00,
2018-01-22 12:18:00,84.6,73.5,29.96,NE,45,3.8,6.5,69,0.00,,,0.00,Arduino-ESP8266,2018-01-22 16:18:00,
2018-01-22 12:24:00,84.5,73.4,29.96,ENE,63,4.1,6.0,68,0.00,,,0.00,Arduino-ESP8266,2018-01-22 16:24:00,
2018-01-22 12:30:00,84.4,73.6,29.96,NNE,26,4.0,6.0,69,0.00,,,0.00,Arduino-ESP8266,2018-01-22 16:30:00,
2018-01-22 12:35:00,84.2,73.5,29.96,NE,45,3.9,7.5,70,0.00,,,0.00,Arduino-ESP8266,2018-01-22 16:35:00,
2018-01-22 12:41:00,84.8,74.4,29.95,NE,45,3.9,7.0,71,0.00,,,0.00,Arduino-ESP8266,2018-01-22 16:41:00,
2018-01-22 12:46:00,84.9,74.5,29.95,NE,52,3.6,5.5,71,0.00,,,0.00,Arduino-ESP8266,2018-01-22 16:46:00,
2018-01-22 12:52:00,84.6,74.0,29.95,ENE,63,5.1,7.0,70,0.00,,,0.00,Arduino-ESP8266,2018-01-22 16:52:00,
2018-01-22 12:57:00,83.6,73.7,29.95,NE,45,3.8,6.5,72,0.00,,,0.00,Arduino-ESP8266,2018-01-22 16:57:00,
2018-01-22 13:03:00,84.3,73.6,29.94,NE,45,3.8,5.5,70,0.00,,,0.00,Arduino-ESP8266,2018-01-22 17:03:00,
2018-01-22 13:08:00,84.5,73.9,29.94,NE,41,3.6,5.0,70,0.00,,,0.00,Arduino-ESP8266,2018-01-22 17:08:00,
2018-01-22 13:14:00,84.7,73.8,29.94,NE,45,3.5,5.0,69,0.00,,,0.00,Arduino-ESP8266,2018-01-22 17:14:00,
2018-01-22 13:19:00,84.4,73.7,29.93,NE,48,4.1,8.4,70,0.00,,,0.00,Arduino-ESP8266,2018-01-22 17:19:00,
2018-01-22 13:25:00,84.4,73.7,29.93,North,7,2.5,5.5,70,0.00,,,0.00,Arduino-ESP8266,2018-01-22 17:25:00,
2018-01-22 13:30:00,84.9,74.0,29.93,NE,45,4.3,9.4,69,0.00,,,0.00,Arduino-ESP8266,2018-01-22 17:30:00,
2018-01-22 13:36:00,83.8,73.2,29.93,NE,37,3.4,5.0,70,0.00,,,0.00,Arduino-ESP8266,2018-01-22 17:36:00,
2018-01-22 13:41:00,83.8,73.4,29.93,NE,45,3.4,6.5,71,0.00,,,0.00,Arduino-ESP8266,2018-01-22 17:41:00,
2018-01-22 13:47:00,84.2,73.4,29.92,NE,45,4.4,7.5,70,0.00,,,0.00,Arduino-ESP8266,2018-01-22 17:47:00,
2018-01-22 13:52:00,84.8,74.1,29.92,NNE,33,2.5,4.5,70,0.00,,,0.00,Arduino-ESP8266,2018-01-22 17:52:00,
2018-01-22 13:58:00,85.0,73.7,29.92,NE,52,4.6,7.5,68,0.00,,,0.00,Arduino-ESP8266,2018-01-22 17:58:00,
2018-01-22 14:03:00,84.5,73.4,29.92,NE,45,3.3,10.4,69,0.00,,,0.00,Arduino-ESP8266,2018-01-22 18:03:00,
2018-01-22 14:09:00,84.6,73.3,29.92,NE,48,4.1,7.0,68,0.00,,,0.00,Arduino-ESP8266,2018-01-22 18:09:00,
2018-01-22 14:14:00,84.0,72.9,29.91,NE,45,5.1,9.9,69,0.00,,,0.00,Arduino-ESP8266,2018-01-22 18:14:00,
2018-01-22 14:20:00,83.1,72.4,29.91,NE,52,6.0,13.9,70,0.00,,,0.00,Arduino-ESP8266,2018-01-22 18:20:00,
2018-01-22 14:25:00,83.1,72.4,29.91,NE,45,3.8,9.9,70,0.00,,,0.00,Arduino-ESP8266,2018-01-22 18:25:00,
2018-01-22 14:31:00,83.6,73.2,29.91,NE,52,3.2,10.9,71,0.00,,,0.00,Arduino-ESP8266,2018-01-22 18:31:00,
2018-01-22 14:37:00,83.6,73.1,29.91,NE,45,4.3,7.5,70,0.00,,,0.00,Arduino-ESP8266,2018-01-22 18:37:00,